Location: Lussas
(44.6119°N, 4.4726°E)
Time: 14:40:13
(UTC+00:00)

BREEZE-M DEB (TANK) - Pass Details

Date: 26 November 2020
Orbit: 357 x 16370 km, 49.4° (Epoch: 26 January)

Event Time Altitude Azimuth Distance (km) Brightness Sun altitude
Exits shadow 05:06:15 10° 206° (SSW) 1,658 4.6 -18.6°
Reaches altitude 10° 05:06:15 10° 206° (SSW) 1,655 4.6 -18.6°
Maximum altitude 05:09:19 43° 132° (SE) 1,053 4.1 -18.1°
Drops below altitude 10° 05:17:31 10° 64° (ENE) 4,419 7.6 -16.7°
Sets 05:24:23 0° 61° (ENE) 7,296 8.7 -15.5°
